GW0503 Weather Reports


Display with metric or nautical units.
time (UTC)temp
F
wind
direction
speed
MPH
gust
MPH
rain 1hr
in
rain 24hr
in
rain mn
in
humidity
%
barometer
mb
20260505061600 46 191 7.0 16.0 0.00 0.46 0.01 84 1007.4
20260505054600 46 224 12.0 20.0 0.00 0.48 0.01 84 1006.7
20260505053117 46 243 8.0 19.0 0.00 0.48 0.01 84 1006.5
20260505051558 46 230 6.0 16.0 0.00 0.48 0.01 83 1006.3
20260505050107 47 250 10.0 25.0 0.00 0.48 0.01 83 1006.0
20260505041555 47 211 11.0 19.0 0.00 0.49 0.01 84 1005.2
20260505040100 47 229 10.0 20.0 0.01 0.49 0.01 85 1005.1
20260505034615 47 217 8.0 18.0 0.01 0.50 0.01 86 1004.6
20260505033057 47 163 7.0 15.0 0.02 0.50 0.01 87 1004.6
20260505031556 46 187 9.0 17.0 0.03 0.50 0.01 88 1004.6
20260505030058 46 182 5.0 16.0 0.02 0.49 0.00 89 1004.4
20260505024558 47 201 8.0 18.0 0.02 0.50 0.49 87 1004.5
20260505023102 47 207 11.0 23.0 0.01 0.49 0.48 85 1004.2
20260505021558 48 214 11.0 20.0 0.00 0.48 0.47 80 1004.0
20260505020059 50 205 14.0 22.0 0.00 0.48 0.47 75 1003.8
20260505014556 50 222 15.0 24.0 0.00 0.51 0.47 73 1003.7
20260505013102 50 194 13.0 25.0 0.00 0.51 0.47 71 1003.5
20260505011611 50 198 14.0 24.0 0.00 0.51 0.47 70 1003.5
20260505010056 50 202 15.0 23.0 0.00 0.51 0.47 70 1003.4
20260505004609 50 227 9.0 27.0 0.00 0.61 0.47 67 1003.1
20260505003058 51 236 12.0 27.0 0.00 0.61 0.47 64 1003.0
20260505001629 51 209 11.0 23.0 0.00 0.61 0.47 61 1002.8
20260505000109 51 213 14.0 28.0 0.00 0.61 0.47 60 1002.8
20260504234610 50 161 8.0 18.0 0.00 0.80 0.47 62 1002.4
20260504233112 50 176 8.0 21.0 0.00 0.80 0.47 60 1002.1
20260504231559 50 185 6.0 17.0 0.00 0.80 0.47 59 1001.9
20260504230059 51 168 11.0 19.0 0.00 0.80 0.47 56 1001.7
20260504224556 52 193 8.0 19.0 0.00 0.92 0.47 54 1001.6
20260504223057 53 195 10.0 16.0 0.00 0.92 0.47 54 1001.1
20260504221555 53 189 9.0 22.0 0.00 0.92 0.47 54 1001.1
20260504220101 54 206 12.0 20.0 0.00 0.92 0.47 53 1001.1
20260504214607 54 211 11.0 18.0 0.00 1.07 0.47 55 1000.9
20260504213054 54 220 12.0 21.0 0.00 1.07 0.47 56 1000.8
20260504211557 54 184 12.0 25.0 0.00 1.07 0.47 56 1000.8
20260504210059 53 180 10.0 27.0 0.00 1.07 0.47 59 1000.8
20260504204608 52 259 12.0 30.0 0.00 1.09 0.47 61 1000.6
20260504203101 51 228 15.0 28.0 0.00 1.09 0.47 64 1000.5
20260504201556 53 245 14.0 37.0 0.00 1.09 0.47 64 1000.3
20260504194604 52 224 14.0 28.0 0.00 1.16 0.47 71 999.5
20260504193102 50 211 17.0 28.0 0.00 1.16 0.47 74 999.3
20260504191611 49 207 20.0 29.0 0.00 1.16 0.47 76 999.3
20260504190057 49 139 11.0 19.0 0.00 1.16 0.47 79 998.8
20260504184557 48 202 12.0 23.0 0.00 1.20 0.47 81 998.7
20260504183057 47 213 14.0 24.0 0.00 1.20 0.47 82 998.8
20260504181601 47 240 9.0 20.0 0.00 1.20 0.47 85 998.4
20260504180059 46 229 10.0 19.0 0.00 1.20 0.47 85 998.2
20260504174558 45 253 17.0 29.0 0.00 1.20 0.47 86 998.1
20260504173058 45 212 14.0 34.0 0.00 1.20 0.47 87 997.8
20260504171558 44 256 17.0 29.0 0.00 1.20 0.47 88 997.3
20260504120106 38 191 8.0 19.0 0.03 0.92 0.19 92 987.3
20260504090117 38 249 9.0 17.0 0.02 0.85 0.12 95 978.1
20260504081555 37 197 5.0 12.0 0.05 0.84 0.11 95 977.0